Tracking 19570 objects as of 22-Feb-2019
HD Live streaming from Space Station
objects crossing your sky now

WESTFORD NEEDLES

Track WESTFORD NEEDLES now!
10-day predictions
WESTFORD NEEDLES is classified as:


NORAD ID: 5702
Int'l Code: 1963-014CU
Perigee: 2,257.0 km
Apogee: 4,970.6 km
Inclination: 86.9 °
Period: 165.5 minutes
Semi major axis: 9984 km
RCS: 0.1919 m2 (medium)
Launch date: May 9, 1963
Source: United States (US)
Launch site: AIR FORCE WESTERN TEST RANGE (AFWTR)
aabbcc
Your satellite tracking list
Your tracking list is empty




NASA's NSSDC Master Catalog

Two Line Element Set (TLE):
1  5702U 63014CU  19049.49801687  .00000442  00000-0  78172-1 0  9990
2  5702  86.9399  74.9383 1358872 232.4616 114.5032  8.70145053588945
Source of the keplerian elements: AFSPC